Regional Weather Roundup
Issued by NWS

Home | Current Version | Previous Version | Text Only | Print | Product List | Glossary On
Versions: 1 2 3 4 5 6 7 8 9 10 11 12 13 14 15 16 17 18 19 20 21 22 23 24 25 26 27 28 29 30 31 32 33 34 35 36 37 38 39 40 41 42 43 44 45 46 47 48 49 50
000
ASUS45 KPSR 110210
RWRAZ

ARIZONA HOURLY REGIONAL WEATHER ROUNDUP
NATIONAL WEATHER SERVICE PHOENIX AZ
700 PM MST SAT DEC 10 2016

NOTE: FAIR INDICATES FEW OR NO CLOUDS BELOW 12,000 FEET WITH NO
SIGNIFICANT WEATHER AND/OR OBSTRUCTIONS TO VISIBILITY.

AZZ001>003-036-110300-
NORTHWEST ARIZONA

CITY           SKY/WX    TMP DP  RH WIND       PRES   REMARKS
BULLHEAD CITY  CLOUDY    61  30  31 CALM      30.00S
KINGMAN        CLOUDY    51  35  54 CALM      30.05S
$$

AZZ004>008-015-016-018-110300-
NORTH CENTRAL ARIZONA

CITY           SKY/WX    TMP DP  RH WIND       PRES   REMARKS
GRAND CANYON   PTCLDY    35  31  85 W5        30.12S WCI  31
WILLIAMS       PTCLDY    43  34  70 S12G17    30.13F
PRESCOTT       CLOUDY    48  36  63 S7        30.12R
FLAGSTAFF      CLOUDY    42  31  64 W9        30.15R
PAYSON         MOCLDY    48  32  53 S3        30.17R
PAGE           PTCLDY    43  25  49 CALM      30.01F HAZE
$$

AZZ009>014-017-110300-
NORTHEAST ARIZONA

CITY           SKY/WX    TMP DP  RH WIND       PRES   REMARKS
WINSLOW        MOCLDY    45  30  55 W8        30.07R
SAINT JOHNS    CLEAR     48  24  39 SW10      30.08R
WINDOW ROCK    CLEAR     46  22  38 SW5       30.09R
SHOW LOW       CLEAR     41  27  56 S13       30.15R
$$

AZZ023-110300-
GREATER PHOENIX AREA

CITY           SKY/WX    TMP DP  RH WIND       PRES   REMARKS
PHOENIX        MOCLDY    64  38  38 CALM      30.02S
BUCKEYE          N/A     57  39  51 NE3       30.05R
GLENDALE       MOCLDY    63  39  42 CALM      30.05R
LUKE AFB       MOCLDY    61  42  48 CALM      30.02S
DEER VALLEY    MOCLDY    60  38  43 CALM      30.04R
SCOTTSDALE     MOCLDY    63  38  39 CALM      30.05S
MESA-FALCON    MOCLDY   N/A N/A N/A SW7       30.02R
MESA-GATEWAY   PTCLDY    57  39  51 SE5       30.05R
CHANDLER       PTCLDY    61  39  44 CALM      30.04R
$$

AZZ027-028-110300-
SOUTHWEST MARICOPA COUNTY AND PINAL COUNTY

CITY           SKY/WX    TMP DP  RH WIND       PRES   REMARKS
CASA GRANDE    NOT AVBL
GILA BEND      FAIR      63  37  37 CALM      30.03R
$$

AZZ503-504-507>509-110300-
SOUTHEAST ARIZONA

CITY           SKY/WX    TMP DP  RH WIND       PRES   REMARKS
TUCSON         CLEAR     63  35  35 CALM      30.10R
DAVIS-MONTHAN  PTCLDY    60  35  39 NW8       30.09R
RYAN FIELD     CLEAR     57  36  44 NW9       30.09R
NOGALES        CLEAR     53  21  28 SE3       30.12R
SIERRA VISTA   MOCLDY    56  19  23 SW7       30.15R
DOUGLAS        PTCLDY    59  20  22 W9        30.12R
SAFFORD        CLEAR     49  32  52 N7        30.07S
$$

AZZ020-021-025-026-031-110300-
SOUTHWEST ARIZONA

CITY           SKY/WX    TMP DP  RH WIND       PRES   REMARKS
YUMA           MOCLDY    66  39  37 CALM      30.00S
$$

CAZ031-033-041-043-047-048-061-110300-
SOUTHERN CALIFORNIA

CITY           SKY/WX    TMP DP  RH WIND       PRES   REMARKS
DOWNTOWN L.A.  CLOUDY    60  56  86 CALM      30.09R FOG
L.A. AIRPORT   CLOUDY    60  58  92 W9        30.10R FOG
SAN DIEGO      MOCLDY    62  55  77 N12       30.11S
BURBANK        CLOUDY    60  53  77 S5        30.09R HAZE
ONTARIO        MOCLDY    57  52  83 W6        30.09R
RIVERSIDE      PTCLDY    60  54  80 W3        30.09S
EL CENTRO NAS  CLOUDY    64  43  46 N7        30.00S
IMPERIAL       CLOUDY    65  42  43 CALM      29.99S
BLYTHE         CLOUDY    64  35  34 CALM      29.99S
NEEDLES        CLOUDY    62  26  25 NW5       29.99F
$$

NVZ020-UTZ003-110300-
SOUTHERN NEVADA-UTAH

CITY           SKY/WX    TMP DP  RH WIND       PRES   REMARKS
LAS VEGAS      MOCLDY    55  22  27 W3        29.99S
SALT LAKE CITY RAIN      39  36  89 N12       29.90R WCI  32
$$

NMZ009-TXZ055-110300-
NEW MEXICO-WEST TEXAS

CITY           SKY/WX    TMP DP  RH WIND       PRES   REMARKS
ALBUQUERQUE    CLOUDY    41  29  62 SE8       30.05R
EL PASO        CLEAR     52  37  56 S8        30.09R
$$


........................KEY........................
SKY/WX - SKY CONDITION/WEATHER
TMP    - TEMPERATURE IN FAHRENHEIT
DP     - DEW POINT IN FAHRENHEIT
RH     - RELATIVE HUMIDITY IN PERCENT
WIND   - DIRECTION AND SPEED IN MILES PER HOUR (MPH)
VRB    - VARIABLE WIND DIRECTION
PRES   - MEAN SEA LEVEL PRESSURE IN INCHES OF MERCURY
         F - FALLING PRESSURE   R - RISING PRESSURE
         S - STEADY PRESSURE
VSB    - VISIBILITY IN MILES
HX     - HEAT INDEX IN FAHRENHEIT
WCI    - WIND CHILL INDEX IN FAHRENHEIT
TC     - TEMPERATURE IN CELSIUS WHICH IS ALSO KNOWN AS
         TEMPERATURE IN CENTIGRADE
AFB    - AIR FORCE BASE
         LUKE AFB IS LUKE AIR FORCE BASE
         DAVIS-MONTHAN IS DAVIS-MONTHAN AIR FORCE BASE
NAS    - NAVAL AIR STATION
         EL CENTRO NAS IS EL CENTRO NAVAL AIR STATION
N/A    - NOT AVAILABLE




USA.gov is the U.S. government's official web portal to all federal, state and local government web resources and services.